N1ICS-1 Weather Reports


Display with metric or nautical units.
time (UTC)temp
F
wind
direction
speed
MPH
gust
MPH
rain 1hr
in
rain 24hr
in
rain mn
in
humidity
%
barometer
mb
20260507122502 43 274 8.0 14.0 0.00 0.00 0.00 80 1016.3
20260507122001 43 273 8.0 10.0 0.00 0.00 0.00 81 1016.4
20260507121501 43 288 12.0 13.0 0.00 0.00 0.00 80 1016.3
20260507121002 42 279 9.0 13.0 0.00 0.00 0.00 81 1016.2
20260507120502 42 291 11.0 15.0 0.00 0.00 0.00 80 1016.2
20260507120003 42 276 9.0 14.0 0.00 0.00 0.00 82 1016.3
20260507115502 42 280 9.0 11.0 0.00 0.00 0.00 81 1016.5
20260507115001 42 271 8.0 13.0 0.00 0.00 0.00 82 1016.4
20260507114502 41 276 7.0 16.0 0.00 0.00 0.00 82 1016.3
20260507114001 41 273 7.0 12.0 0.00 0.00 0.00 83 1016.4
20260507113502 41 271 8.0 12.0 0.00 0.00 0.00 84 1016.2
20260507113002 41 267 7.0 9.0 0.00 0.00 0.00 85 1016.1
20260507112501 40 266 5.0 9.0 0.00 0.00 0.00 86 1016.0
20260507112002 40 262 4.0 8.0 0.00 0.00 0.00 88 1015.9
20260507111502 40 274 6.0 7.0 0.00 0.00 0.00 89 1016.0
20260507111002 39 257 3.0 6.0 0.00 0.00 0.00 89 1015.9
20260507110502 39 254 4.0 6.0 0.00 0.00 0.00 89 1015.9
20260507110002 39 254 4.0 5.0 0.00 0.00 0.00 88 1015.8
20260507105501 39 261 5.0 7.0 0.00 0.00 0.00 88 1015.5
20260507105002 39 269 5.0 8.0 0.00 0.00 0.00 87 1015.6
20260507104501 39 262 5.0 7.0 0.00 0.00 0.00 87 1015.5
20260507104002 39 258 7.0 8.0 0.00 0.00 0.00 87 1015.6
20260507103502 39 256 5.0 7.0 0.00 0.00 0.00 88 1015.9
20260507103002 38 254 5.0 7.0 0.00 0.00 0.00 91 1016.0
20260507102501 37 257 4.0 6.0 0.00 0.00 0.00 92 1015.6
20260507102002 37 263 3.0 5.0 0.00 0.00 0.00 93 1015.6
20260507101501 37 245 4.0 5.0 0.00 0.00 0.00 93 1015.5
20260507101002 37 250 4.0 5.0 0.00 0.00 0.00 93 1015.6
20260507100501 37 257 3.0 5.0 0.00 0.00 0.00 93 1015.7
20260507100002 37 276 2.0 5.0 0.00 0.00 0.00 93 1015.7
20260507095502 37 266 3.0 5.0 0.00 0.00 0.00 92 1015.4
20260507095002 36 273 3.0 5.0 0.00 0.00 0.00 93 1015.5
20260507094502 36 260 3.0 4.0 0.00 0.00 0.00 92 1015.6
20260507094002 37 258 3.0 4.0 0.00 0.00 0.00 91 1015.5
20260507093501 37 241 4.0 4.0 0.00 0.00 0.00 90 1015.5
20260507093002 38 247 4.0 5.0 0.00 0.00 0.00 89 1015.7
20260507092502 38 249 4.0 6.0 0.00 0.00 0.00 90 1015.7
20260507092002 37 258 2.0 5.0 0.00 0.00 0.00 91 1015.5
20260507091502 37 218 0.0 3.0 0.00 0.00 0.00 90 1015.6
20260507091002 38 240 2.0 5.0 0.00 0.00 0.00 89 1015.5
20260507090501 39 241 3.0 6.0 0.00 0.00 0.00 86 1015.4
20260507090002 40 268 4.0 7.0 0.00 0.00 0.00 84 1015.5
20260507085501 40 266 6.0 9.0 0.00 0.00 0.00 84 1015.4
20260507085002 40 255 5.0 9.0 0.00 0.00 0.00 84 1015.6
20260507084502 39 266 3.0 7.0 0.00 0.00 0.00 86 1015.5
20260507084002 39 261 4.0 8.0 0.00 0.00 0.00 86 1015.4
20260507083501 38 263 2.0 4.0 0.00 0.00 0.00 89 1015.4
20260507083002 38 253 3.0 4.0 0.00 0.00 0.00 88 1015.5
20260507082501 39 263 4.0 4.0 0.00 0.00 0.00 88 1015.3
20260507082002 39 262 3.0 5.0 0.00 0.00 0.00 87 1015.2
20260507081502 40 267 3.0 5.0 0.00 0.00 0.00 85 1015.4
20260507081002 41 261 4.0 7.0 0.00 0.00 0.00 83 1015.5
20260507080502 42 261 3.0 8.0 0.00 0.00 0.00 82 1015.4
20260507080002 42 265 5.0 9.0 0.00 0.00 0.00 82 1015.5
20260507075501 41 262 6.0 10.0 0.00 0.00 0.00 82 1015.6
20260507075002 41 283 5.0 7.0 0.00 0.00 0.00 83 1015.3
20260507074501 42 268 4.0 7.0 0.00 0.00 0.00 82 1015.4
20260507074002 42 262 7.0 9.0 0.00 0.00 0.00 81 1015.4
20260507073502 43 280 6.0 10.0 0.00 0.00 0.00 80 1015.6
20260507073001 43 267 11.0 11.0 0.00 0.00 0.00 81 1015.5
20260507072501 43 280 6.0 11.0 0.00 0.00 0.00 80 1015.4
20260507072002 42 266 8.0 11.0 0.00 0.00 0.00 81 1015.5
20260507071502 42 274 5.0 9.0 0.00 0.00 0.00 84 1015.4
20260507071002 41 269 5.0 8.0 0.00 0.00 0.00 86 1015.3
20260507070503 40 263 4.0 6.0 0.00 0.00 0.00 87 1015.4
20260507070003 40 272 4.0 5.0 0.00 0.00 0.00 88 1015.5
20260507065501 40 264 3.0 6.0 0.00 0.00 0.00 89 1015.6
20260507065002 40 245 5.0 6.0 0.00 0.00 0.00 90 1015.4
20260507064501 40 247 4.0 6.0 0.00 0.00 0.00 90 1015.6
20260507064002 40 243 4.0 5.0 0.00 0.00 0.00 90 1015.5
20260507063502 39 261 3.0 6.0 0.00 0.00 0.00 91 1015.6
20260507063001 39 253 4.0 6.0 0.00 0.00 0.00 92 1015.6
20260507062502 39 250 3.0 4.0 0.00 0.00 0.00 93 1015.7
20260507062001 38 252 3.0 3.0 0.00 0.00 0.00 92 1015.6
20260507061502 39 230 3.0 4.0 0.00 0.00 0.00 93 1015.6
20260507061002 39 224 2.0 3.0 0.00 0.00 0.00 93 1015.7
20260507060502 39 211 0.0 2.0 0.00 0.00 0.00 92 1015.7
20260507060002 40 252 2.0 3.0 0.00 0.00 0.00 91 1015.5
20260507055502 40 251 2.0 3.0 0.00 0.00 0.00 90 1015.6
20260507055001 41 258 3.0 4.0 0.00 0.00 0.00 89 1015.6
20260507054502 42 262 4.0 5.0 0.00 0.00 0.00 88 1015.6
20260507054002 42 271 5.0 6.0 0.00 0.00 0.00 88 1015.6
20260507053501 42 271 4.0 5.0 0.00 0.00 0.00 89 1015.6
20260507053003 41 274 3.0 5.0 0.00 0.00 0.00 90 1015.8
20260507052502 42 265 3.0 5.0 0.00 0.00 0.00 89 1015.8
20260507052002 42 272 3.0 4.0 0.00 0.00 0.00 89 1015.7
20260507051502 42 268 4.0 5.0 0.00 0.00 0.00 87 1015.7
20260507051001 42 267 4.0 5.0 0.00 0.00 0.00 88 1015.6
20260507050502 43 272 5.0 5.0 0.00 0.00 0.00 88 1015.7
20260507050002 42 271 4.0 5.0 0.00 0.00 0.00 88 1015.7
20260507045501 42 272 3.0 4.0 0.00 0.00 0.00 89 1015.7
20260507045002 42 267 3.0 4.0 0.00 0.00 0.00 87 1015.6
20260507044502 43 273 3.0 4.0 0.00 0.00 0.00 88 1015.6
20260507044002 42 267 3.0 4.0 0.00 0.00 0.00 90 1015.5
20260507043502 43 240 0.0 3.0 0.00 0.00 0.00 90 1015.5
20260507043002 43 247 2.0 4.0 0.00 0.00 0.00 89 1015.6
20260507042502 43 269 3.0 4.0 0.00 0.00 0.00 90 1015.6
20260507042001 42 292 3.0 3.0 0.00 0.00 0.00 92 1015.7
20260507041501 43 258 2.0 3.0 0.00 0.00 0.00 91 1015.5
20260507041002 43 242 2.0 3.0 0.00 0.00 0.00 90 1015.7
20260507040502 43 267 2.0 3.0 0.00 0.00 0.00 91 1015.6
20260507040001 42 266 2.0 3.0 0.00 0.29 0.29 92 1015.7
20260507035502 42 303 2.0 2.0 0.00 0.29 0.29 92 1015.7
20260507035001 42 258 0.0 2.0 0.00 0.29 0.29 89 1015.5
20260507034502 44 251 2.0 3.0 0.00 0.29 0.29 88 1015.6
20260507034002 44 249 2.0 2.0 0.00 0.29 0.29 85 1015.6
20260507033501 45 245 0.0 2.0 0.00 0.29 0.29 86 1015.4
20260507033001 45 347 2.0 3.0 0.00 0.29 0.29 84 1015.5
20260507032502 47 198 4.0 4.0 0.00 0.29 0.29 81 1015.6
20260507032001 46 261 2.0 3.0 0.00 0.29 0.29 82 1015.6
20260507031502 46 12 4.0 8.0 0.00 0.29 0.29 85 1015.5
20260507031002 46 261 4.0 6.0 0.00 0.29 0.29 83 1015.6
20260507030502 45 14 6.0 8.0 0.00 0.29 0.29 89 1015.5
20260507030003 45 263 4.0 4.0 0.00 0.29 0.29 89 1015.6
20260507025501 45 272 2.0 4.0 0.00 0.29 0.29 89 1015.6
20260507025002 45 264 3.0 4.0 0.00 0.29 0.29 89 1015.6
20260507024502 45 272 3.0 4.0 0.00 0.29 0.29 89 1015.5
20260507024002 45 266 3.0 4.0 0.00 0.29 0.29 88 1015.9
20260507023502 46 278 3.0 4.0 0.00 0.29 0.29 88 1015.7
20260507023001 46 268 3.0 4.0 0.00 0.29 0.29 88 1015.7
20260507022502 46 285 3.0 4.0 0.00 0.29 0.29 89 1015.7
20260507022001 46 283 2.0 4.0 0.00 0.29 0.29 89 1015.7
20260507021502 46 280 2.0 3.0 0.00 0.29 0.29 90 1015.6
20260507021002 46 277 2.0 3.0 0.00 0.29 0.29 90 1015.7
20260507020502 46 249 2.0 3.0 0.00 0.29 0.29 90 1015.6
20260507020002 46 263 2.0 3.0 0.00 0.29 0.29 90 1015.7
20260507015501 47 272 3.0 3.0 0.00 0.29 0.29 89 1015.5
20260507015002 47 269 3.0 4.0 0.00 0.29 0.29 88 1015.5
20260507014501 47 273 2.0 3.0 0.00 0.29 0.29 87 1015.3
20260507014002 47 268 3.0 4.0 0.00 0.29 0.29 88 1015.4
20260507013502 47 286 3.0 3.0 0.00 0.29 0.29 88 1015.7
20260507013002 47 275 2.0 3.0 0.00 0.29 0.29 88 1015.2
20260507012502 47 271 3.0 3.0 0.00 0.29 0.29 88 1015.5
20260507012001 48 265 2.0 3.0 0.00 0.29 0.29 87 1015.2
20260507011502 48 255 3.0 3.0 0.00 0.29 0.29 85 1015.2
20260507011002 48 263 2.0 3.0 0.00 0.29 0.29 85 1014.7
20260507010501 48 271 2.0 2.0 0.00 0.29 0.29 85 1014.8
20260507010002 48 262 2.0 3.0 0.00 0.29 0.29 86 1014.8
20260507005501 48 253 2.0 3.0 0.00 0.29 0.29 86 1014.8
20260507005002 48 278 0.0 2.0 0.00 0.29 0.29 87 1015.0
20260507004501 48 221 2.0 3.0 0.00 0.29 0.29 86 1015.1
20260507004002 48 249 2.0 2.0 0.00 0.29 0.29 85 1014.9
20260507003501 48 227 2.0 3.0 0.00 0.29 0.29 84 1014.7
20260507003001 48 269 3.0 3.0 0.00 0.29 0.29 83 1014.9
20260507002502 48 238 2.0 3.0 0.00 0.29 0.29 83 1015.0
20260507002001 48 241 2.0 3.0 0.00 0.29 0.29 81 1015.0
20260507001501 48 260 3.0 3.0 0.00 0.29 0.29 80 1014.8
20260507001002 49 263 3.0 4.0 0.00 0.29 0.29 77 1014.8
20260507000502 50 253 3.0 5.0 0.00 0.29 0.29 76 1014.8
20260507000003 50 238 3.0 4.0 0.00 0.29 0.29 76 1014.9
20260506235502 51 255 3.0 6.0 0.00 0.29 0.29 73 1014.7
20260506235002 52 247 4.0 6.0 0.00 0.29 0.29 72 1014.7
20260506234502 52 261 4.0 7.0 0.00 0.29 0.29 68 1015.0
20260506234002 52 244 7.0 11.0 0.00 0.29 0.29 64 1014.8
20260506233502 53 239 4.0 8.0 0.00 0.29 0.29 65 1014.8
20260506233001 53 239 9.0 11.0 0.00 0.29 0.29 62 1014.8
20260506232502 54 240 5.0 10.0 0.00 0.29 0.29 60 1014.9
20260506232002 55 213 6.0 11.0 0.00 0.29 0.29 56 1015.0
20260506231502 56 248 8.0 10.0 0.00 0.29 0.29 58 1015.0
20260506231002 56 243 8.0 13.0 0.00 0.29 0.29 57 1015.1
20260506230502 55 239 13.0 13.0 0.00 0.29 0.29 60 1015.1
20260506230002 55 249 11.0 14.0 0.00 0.29 0.29 59 1015.0
20260506225501 54 245 9.0 13.0 0.00 0.29 0.29 59 1015.1
20260506225002 54 239 8.0 13.0 0.00 0.29 0.29 62 1015.1
20260506224501 54 252 9.0 12.0 0.00 0.29 0.29 62 1015.2
20260506224002 54 248 8.0 12.0 0.00 0.29 0.29 61 1015.2
20260506223502 54 242 13.0 14.0 0.00 0.29 0.29 62 1015.2
20260506223004 53 255 9.0 14.0 0.00 0.29 0.29 58 1015.2
20260506222501 54 277 12.0 14.0 0.00 0.29 0.29 60 1015.2
20260506222002 53 267 13.0 16.0 0.00 0.29 0.29 58 1015.0
20260506221502 53 266 8.0 15.0 0.00 0.29 0.29 60 1015.0
20260506221002 53 269 11.0 13.0 0.00 0.29 0.29 58 1015.1
20260506220502 53 273 8.0 13.0 0.00 0.29 0.29 59 1014.9
20260506220002 53 259 11.0 13.0 0.00 0.29 0.29 60 1015.0
20260506215502 53 277 10.0 12.0 0.00 0.29 0.29 58 1015.0
20260506215001 53 283 9.0 15.0 0.00 0.29 0.29 55 1014.9
20260506214502 54 319 5.0 12.0 0.00 0.29 0.29 56 1014.9
20260506214002 54 324 5.0 13.0 0.00 0.29 0.29 55 1015.1
20260506213502 54 284 8.0 15.0 0.00 0.29 0.29 57 1015.1
20260506213002 54 274 11.0 13.0 0.00 0.29 0.29 59 1015.0
20260506212502 54 271 11.0 12.0 0.00 0.29 0.29 59 1014.9
20260506212002 54 282 12.0 15.0 0.00 0.29 0.29 56 1015.0
20260506211501 54 278 9.0 13.0 0.00 0.29 0.29 56 1015.0
20260506211002 53 281 7.0 12.0 0.00 0.29 0.29 56 1014.9
20260506210501 54 287 9.0 11.0 0.00 0.29 0.29 61 1014.6
20260506210002 54 275 7.0 13.0 0.00 0.29 0.29 55 1014.8
20260506205502 53 285 6.0 13.0 0.00 0.29 0.29 55 1014.8
20260506205002 53 275 8.0 13.0 0.00 0.29 0.29 55 1014.7
20260506204502 54 284 7.0 12.0 0.00 0.29 0.29 58 1014.8
20260506204001 54 283 8.0 12.0 0.00 0.29 0.29 57 1014.8
20260506203502 54 286 10.0 10.0 0.00 0.29 0.29 58 1014.8
20260506203002 54 308 7.0 16.0 0.00 0.29 0.29 51 1014.7
20260506202502 54 272 9.0 16.0 0.00 0.29 0.29 56 1014.6
20260506202002 54 248 8.0 13.0 0.00 0.29 0.29 56 1014.9
20260506201502 54 274 11.0 15.0 0.00 0.29 0.29 57 1014.9
20260506201002 54 286 10.0 13.0 0.00 0.29 0.29 58 1014.9
20260506200502 54 284 7.0 15.0 0.00 0.29 0.29 55 1015.0
20260506200002 54 286 10.0 12.0 0.00 0.29 0.29 52 1015.0
20260506195501 54 291 10.0 16.0 0.00 0.29 0.29 54 1014.8
20260506195002 54 348 8.0 13.0 0.00 0.29 0.29 54 1014.8
20260506194501 54 317 4.0 13.0 0.00 0.29 0.29 53 1014.9
20260506194002 54 292 6.0 18.0 0.00 0.29 0.29 51 1014.7
20260506193501 54 275 9.0 15.0 0.00 0.29 0.29 54 1014.7
20260506193002 54 332 9.0 18.0 0.00 0.29 0.29 53 1014.7
20260506192502 54 261 12.0 14.0 0.00 0.29 0.29 59 1014.8
20260506192001 54 290 11.0 14.0 0.00 0.29 0.29 59 1014.7
20260506191502 55 284 12.0 13.0 0.00 0.29 0.29 56 1014.6
20260506191002 55 230 5.0 8.0 0.00 0.29 0.29 54 1014.6
20260506190502 54 289 4.0 9.0 0.00 0.29 0.29 53 1014.9
20260506190003 55 265 12.0 15.0 0.00 0.29 0.29 58 1014.9
20260506185502 56 294 5.0 12.0 0.00 0.29 0.29 52 1014.8
20260506185002 55 313 8.0 14.0 0.00 0.29 0.29 52 1015.1
20260506184502 56 289 11.0 14.0 0.00 0.29 0.29 58 1015.0
20260506184001 55 279 6.0 10.0 0.00 0.29 0.29 53 1014.8
20260506183503 54 290 4.0 11.0 0.00 0.29 0.29 54 1014.9
20260506183002 55 294 4.0 9.0 0.00 0.29 0.29 53 1015.1
20260506182502 54 312 6.0 12.0 0.00 0.29 0.29 50 1015.1
20260506182002 55 331 5.0 21.0 0.00 0.29 0.29 53 1014.8
20260506181501 55 277 8.0 13.0 0.00 0.29 0.29 51 1014.9
20260506181002 55 290 10.0 17.0 0.00 0.29 0.29 51 1015.0
20260506180501 55 251 3.0 8.0 0.00 0.29 0.29 57 1014.8
20260506180002 54 274 5.0 11.0 0.00 0.29 0.29 50 1014.7
20260506175502 54 254 9.0 14.0 0.00 0.29 0.29 56 1014.7
20260506175002 54 275 9.0 12.0 0.00 0.29 0.29 55 1014.8
20260506174502 54 275 13.0 13.0 0.00 0.29 0.29 54 1015.0
20260506174001 54 159 2.0 5.0 0.00 0.29 0.29 58 1014.8
20260506173502 54 313 4.0 10.0 0.00 0.29 0.29 53 1014.9
20260506173001 54 341 5.0 8.0 0.00 0.29 0.29 54 1015.0
20260506172502 54 224 6.0 11.0 0.00 0.29 0.29 55 1014.9
20260506172001 54 239 8.0 11.0 0.00 0.29 0.29 56 1014.9
20260506171502 54 297 10.0 15.0 0.00 0.29 0.29 60 1014.9
20260506171001 54 212 4.0 10.0 0.00 0.29 0.29 56 1014.9
20260506170502 53 283 2.0 8.0 0.00 0.29 0.29 59 1015.1
20260506170002 53 324 6.0 11.0 0.00 0.29 0.29 57 1015.1
20260506165502 53 347 4.0 11.0 0.00 0.29 0.29 54 1015.2
20260506165002 53 267 4.0 9.0 0.00 0.29 0.29 57 1015.2
20260506164502 53 273 5.0 8.0 0.00 0.29 0.29 59 1015.1
20260506164001 53 278 6.0 10.0 0.00 0.29 0.29 58 1015.1
20260506163502 53 315 5.0 6.0 0.00 0.29 0.29 61 1015.2
20260506163002 53 349 3.0 9.0 0.00 0.29 0.29 57 1015.4
20260506162501 54 285 7.0 8.0 0.00 0.29 0.29 57 1015.2
20260506162002 53 313 5.0 10.0 0.00 0.29 0.29 57 1015.2
20260506161502 53 311 13.0 16.0 0.00 0.29 0.29 55 1015.0
20260506161002 54 294 11.0 11.0 0.00 0.29 0.29 54 1015.0
20260506160502 55 288 4.0 11.0 0.00 0.29 0.29 64 1015.0
20260506160002 53 288 4.0 11.0 0.00 0.29 0.29 55 1015.3
20260506155502 53 290 9.0 12.0 0.00 0.29 0.29 55 1015.3
20260506155002 54 315 4.0 9.0 0.00 0.29 0.29 60 1015.1
20260506154501 53 26 2.0 8.0 0.00 0.29 0.29 56 1015.1
20260506154001 53 21 8.0 15.0 0.00 0.29 0.29 56 1015.1
20260506153502 54 1 6.0 15.0 0.00 0.29 0.29 61 1014.8
20260506153002 55 313 5.0 9.0 0.00 0.29 0.29 58 1014.9
20260506152502 54 317 8.0 12.0 0.00 0.29 0.29 58 1014.7
20260506152001 54 333 8.0 12.0 0.00 0.29 0.29 57 1014.9
20260506151502 53 323 6.0 13.0 0.00 0.29 0.29 61 1014.9
20260506151001 53 15 9.0 13.0 0.00 0.29 0.29 60 1014.7
20260506150502 53 21 4.0 9.0 0.00 0.29 0.29 65 1014.6
20260506150003 54 330 12.0 14.0 0.00 0.29 0.29 62 1014.6
20260506145501 52 24 13.0 15.0 0.00 0.29 0.29 64 1014.5
20260506145002 52 18 13.0 13.0 0.00 0.29 0.29 60 1014.5
20260506144502 52 334 8.0 17.0 0.00 0.29 0.29 60 1014.2
20260506144001 52 5 9.0 15.0 0.00 0.29 0.29 59 1014.3
20260506143502 52 22 9.0 12.0 0.00 0.29 0.29 64 1014.2
20260506143001 52 340 6.0 12.0 0.00 0.29 0.29 63 1014.2
20260506142502 52 23 4.0 13.0 0.00 0.29 0.29 64 1014.2
20260506142002 52 339 5.0 12.0 0.00 0.29 0.29 62 1014.4
20260506141501 51 10 10.0 11.0 0.00 0.29 0.29 66 1014.6
20260506141002 52 332 9.0 11.0 0.00 0.29 0.29 70 1014.2
20260506140502 51 15 4.0 13.0 0.00 0.29 0.29 65 1014.0
20260506140002 51 344 6.0 12.0 0.00 0.29 0.29 69 1014.0
20260506135502 51 342 2.0 11.0 0.00 0.29 0.29 72 1014.1
20260506135002 51 20 7.0 11.0 0.00 0.29 0.29 73 1013.9
20260506134502 50 349 4.0 9.0 0.00 0.29 0.29 68 1013.9
20260506134001 50 319 2.0 5.0 0.00 0.29 0.29 71 1013.9
20260506133502 50 338 5.0 8.0 0.00 0.29 0.29 70 1013.9
20260506133002 50 42 3.0 8.0 0.00 0.29 0.29 74 1014.1
20260506132501 50 0 3.0 8.0 0.00 0.29 0.29 75 1013.9
20260506132002 50 328 3.0 9.0 0.00 0.29 0.29 76 1013.7
20260506131502 50 354 7.0 8.0 0.00 0.29 0.29 81 1013.7
20260506131002 50 7 5.0 9.0 0.00 0.29 0.29 81 1013.7
20260506130502 49 320 8.0 11.0 0.00 0.29 0.29 79 1013.6
20260506130003 49 348 4.0 10.0 0.00 0.29 0.29 82 1013.6
20260506125501 49 352 3.0 6.0 0.00 0.29 0.29 87 1013.6
20260506125002 49 289 4.0 7.0 0.00 0.29 0.29 88 1013.4
20260506124501 49 295 4.0 6.0 0.00 0.29 0.29 90 1013.5
20260506124002 47 323 3.0 7.0 0.00 0.29 0.29 91 1013.5
20260506123501 46 339 2.0 3.0 0.00 0.29 0.29 95 1013.2
20260506123001 46 299 4.0 7.0 0.00 0.29 0.29 95 1013.3